Monett, MO

4:17 AM CDT on May 29, 2017 (GMT -0500)
Monett

Weather History for KHFJ - April, 2013

Change the Weather History Date:

Thursday, April 4, 2013

  Actual Average (KJLN) Record (KJLN)
Temperature  
Mean Temperature 45 °F -  
Max Temperature 53 °F 61 °F 84 °F (1988)
Min Temperature 37 °F 41 °F 24 °F (1987)
Degree Days  
Heating Degree Days 20    
Moisture  
Dew Point 32 °F    
Average Humidity 62    
Maximum Humidity 93    
Minimum Humidity 41    
Precipitation  
Precipitation 0.01 in - - ()
Sea Level Pressure  
Sea Level Pressure 30.11 in    
Wind  
Wind Speed 4 mph (North)    
Max Wind Speed 10 mph    
Max Gust Speed -    
Visibility 10 miles    
Events Rain    
Averages and records for this station are not official NWS values.
T = Trace of Precipitation, MM = Missing Value Source: NWS Daily Summary

Daily Weather History Graph

Daily Weather History Graph

Search for Another Location

Airport or City:

Trip Planner

Search our weather history database for the weather conditions in past years. The results will help you decide how hot, cold, wet, or windy it might be!

Date:

Astronomy

Apr. 04, 2013 Rise Set
Actual Time 6:57 AM CDT 7:41 PM CDT
Civil Twilight 6:30 AM CDT 8:07 PM CDT
Nautical Twilight 5:59 AM CDT 8:38 PM CDT
Astronomical Twilight 5:28 AM CDT 9:10 PM CDT
Moon 3:16 AM CDT (4/4) 2:08 PM CDT (4/4)
Length of Visible Light 13h 36m
Length of Day
12h 44m
Waning Crescent, 33% of the Moon is Illuminated
Apr 4
Waning Crescent
Apr 10
New
Apr 18
First Quarter
Apr 25
Full
May 2
Last Quarter

Hourly Weather History & Observations

Time (CDT) Temp. Windchill Dew Point Humidity Pressure Visibility Wind Dir Wind Speed Gust Speed Precip Events Conditions
12:15 AM 42.8 °F 39.3 °F 28.4 °F 57% 30.15 in 10.0 mi ENE 5.8 mph - N/A   Overcast
12:35 AM 42.8 °F 41.1 °F 28.4 °F 57% 30.15 in 10.0 mi East 3.5 mph - N/A   Overcast
12:55 AM 44.6 °F 43.1 °F 30.2 °F 57% 30.15 in 10.0 mi ENE 3.5 mph - N/A   Overcast
1:15 AM 44.6 °F 43.1 °F 28.4 °F 53% 30.15 in 10.0 mi East 3.5 mph - N/A   Overcast
1:35 AM 44.6 °F 42.2 °F 28.4 °F 53% 30.15 in 10.0 mi East 4.6 mph - N/A   Overcast
1:55 AM 44.6 °F 40.7 °F 28.4 °F 53% 30.15 in 10.0 mi ESE 6.9 mph - N/A   Overcast
2:15 AM 42.8 °F 37.5 °F 30.2 °F 61% 30.15 in 10.0 mi SSE 9.2 mph - N/A   Overcast
2:35 AM 42.8 °F 38.6 °F 30.2 °F 61% 30.15 in 10.0 mi SSE 6.9 mph - N/A   Light Drizzle
2:55 AM 41.0 °F 37.1 °F 32.0 °F 70% 30.15 in 10.0 mi South 5.8 mph - N/A   Drizzle
3:15 AM 39.2 °F 34.2 °F 33.8 °F 81% 30.14 in 10.0 mi South 6.9 mph - N/A   Drizzle
3:35 AM 39.2 °F 35.0 °F 35.6 °F 87% 30.14 in 10.0 mi SSE 5.8 mph - N/A Rain Light Rain
3:55 AM 37.4 °F - 35.6 °F 93% 30.14 in 10.0 mi Calm Calm - N/A   Drizzle
4:15 AM 37.4 °F - 35.6 °F 93% 30.14 in 10.0 mi Calm Calm - 0.01 in Rain Rain
4:35 AM 37.4 °F - 35.6 °F 93% 30.14 in 10.0 mi Calm Calm - 0.01 in   Drizzle
4:55 AM 39.2 °F - 35.6 °F 87% 30.14 in 10.0 mi Calm Calm - 0.01 in   Drizzle
5:15 AM 37.4 °F - 35.6 °F 93% 30.14 in 10.0 mi Calm Calm - N/A   Drizzle
5:35 AM 37.4 °F - 35.6 °F 93% 30.14 in 10.0 mi Calm Calm - N/A   Drizzle
5:55 AM 37.4 °F - 35.6 °F 93% 30.14 in 10.0 mi Calm Calm - N/A   Light Drizzle
6:15 AM 39.2 °F - 35.6 °F 87% 30.14 in 10.0 mi Calm Calm - N/A   Overcast
6:35 AM 39.2 °F - 33.8 °F 81% 30.14 in 10.0 mi Calm Calm - N/A   Overcast
6:55 AM 39.2 °F - 33.8 °F 81% 30.14 in 10.0 mi Calm Calm - N/A   Overcast
7:15 AM 39.2 °F - 35.6 °F 87% 30.15 in 10.0 mi Calm Calm - N/A   Overcast
7:35 AM 39.2 °F - 37.4 °F 93% 30.14 in 10.0 mi Calm Calm - N/A   Overcast
7:55 AM 39.2 °F - 35.6 °F 87% 30.14 in 10.0 mi Calm Calm - N/A   Overcast
8:15 AM 39.2 °F - 33.8 °F 81% 30.13 in 10.0 mi Calm Calm - N/A   Overcast
8:35 AM 41.0 °F - 33.8 °F 76% 30.13 in 10.0 mi Calm Calm - N/A   Overcast
8:55 AM 41.0 °F - 33.8 °F 76% 30.12 in 10.0 mi Calm Calm - N/A   Overcast
9:15 AM 41.0 °F - 32.0 °F 70% 30.12 in 10.0 mi Calm Calm - N/A   Scattered Clouds
9:35 AM 41.0 °F - 32.0 °F 70% 30.12 in 10.0 mi Calm Calm - N/A   Clear
9:55 AM 42.8 °F - 32.0 °F 66% 30.12 in 10.0 mi Calm Calm - N/A   Clear
10:15 AM 42.8 °F 40.1 °F 32.0 °F 66% 30.11 in 10.0 mi NE 4.6 mph - N/A   Clear
10:35 AM 44.6 °F 41.4 °F 32.0 °F 61% 30.12 in 10.0 mi North 5.8 mph - N/A   Clear
10:55 AM 44.6 °F 41.4 °F 30.2 °F 57% 30.12 in 10.0 mi North 5.8 mph - N/A   Clear
11:55 AM 46.4 °F - 32.0 °F 57% 30.12 in 10.0 mi Calm Calm - N/A   Mostly Cloudy
12:15 PM 46.4 °F 45.2 °F 32.0 °F 57% 30.12 in 10.0 mi NNW 3.5 mph - N/A   Overcast
12:35 PM 48.2 °F - 30.2 °F 50% 30.11 in 10.0 mi North 3.5 mph - N/A   Overcast
12:55 PM 50.0 °F - 32.0 °F 50% 30.11 in 10.0 mi NNW 8.1 mph - N/A   Overcast
1:15 PM 50.0 °F - 30.2 °F 47% 30.11 in 10.0 mi North 5.8 mph - N/A   Overcast
1:35 PM 51.8 °F - 32.0 °F 47% 30.10 in 10.0 mi NNW 8.1 mph - N/A   Overcast
1:55 PM 51.8 °F - 32.0 °F 47% 30.10 in 10.0 mi NNW 9.2 mph - N/A   Overcast
2:15 PM 50.0 °F - 30.2 °F 47% 30.10 in 10.0 mi NNW 8.1 mph - N/A   Overcast
2:35 PM 50.0 °F - 32.0 °F 50% 30.09 in 10.0 mi NNW 5.8 mph - N/A   Overcast
2:55 PM 51.8 °F - 30.2 °F 44% 30.08 in 10.0 mi North 10.4 mph - N/A   Overcast
3:15 PM 53.6 °F - 32.0 °F 44% 30.08 in 10.0 mi North 9.2 mph - N/A   Overcast
3:35 PM 53.6 °F - 32.0 °F 44% 30.07 in 10.0 mi North 6.9 mph - N/A   Overcast
3:55 PM 53.6 °F - 32.0 °F 44% 30.07 in 10.0 mi North 8.1 mph - N/A   Overcast
4:15 PM 53.6 °F - 32.0 °F 44% 30.06 in 10.0 mi NNW 8.1 mph - N/A   Overcast
4:35 PM 53.6 °F - 32.0 °F 44% 30.06 in 10.0 mi NW 8.1 mph - N/A   Overcast
4:55 PM 53.6 °F - 32.0 °F 44% 30.06 in 10.0 mi NW 9.2 mph - N/A   Overcast
5:15 PM 53.6 °F - 32.0 °F 44% 30.06 in 10.0 mi NW 9.2 mph - N/A   Overcast
5:35 PM 53.6 °F - 32.0 °F 44% 30.06 in 10.0 mi NNW 10.4 mph - N/A   Overcast
5:55 PM 53.6 °F - 30.2 °F 41% 30.07 in 10.0 mi NNW 6.9 mph - N/A   Overcast
6:15 PM 53.6 °F - 30.2 °F 41% 30.06 in 10.0 mi NNW 4.6 mph - N/A   Overcast
6:35 PM 53.6 °F - 32.0 °F 44% 30.07 in 10.0 mi NNW 6.9 mph - N/A   Overcast
6:55 PM 51.8 °F - 32.0 °F 47% 30.06 in 10.0 mi North 3.5 mph - N/A   Overcast
7:15 PM 51.8 °F - 32.0 °F 47% 30.07 in 10.0 mi North 4.6 mph - N/A   Mostly Cloudy
7:35 PM 50.0 °F - 32.0 °F 50% 30.07 in 10.0 mi North 4.6 mph - N/A   Scattered Clouds
7:55 PM 50.0 °F - 32.0 °F 50% 30.08 in 10.0 mi North 6.9 mph - N/A   Overcast
8:15 PM 48.2 °F - 32.0 °F 54% 30.08 in 10.0 mi North 4.6 mph - N/A   Overcast
8:35 PM 46.4 °F 44.3 °F 32.0 °F 57% 30.08 in 10.0 mi North 4.6 mph - N/A   Scattered Clouds
8:55 PM 46.4 °F 44.3 °F 32.0 °F 57% 30.09 in 10.0 mi North 4.6 mph - N/A   Clear
9:15 PM 46.4 °F 45.2 °F 30.2 °F 53% 30.09 in 10.0 mi North 3.5 mph - N/A   Clear
9:35 PM 46.4 °F - 30.2 °F 53% 30.10 in 10.0 mi Calm Calm - N/A   Clear
9:55 PM 46.4 °F - 30.2 °F 53% 30.11 in 10.0 mi Calm Calm - N/A   Clear
10:15 PM 44.6 °F - 30.2 °F 57% 30.12 in 10.0 mi Calm Calm - N/A   Clear
10:35 PM 44.6 °F - 30.2 °F 57% 30.12 in 10.0 mi Calm Calm - N/A   Clear
10:55 PM 42.8 °F - 30.2 °F 61% 30.12 in 10.0 mi Calm Calm - N/A   Clear
11:15 PM 42.8 °F - 30.2 °F 61% 30.12 in 10.0 mi Calm Calm - N/A   Clear
11:35 PM 41.0 °F - 30.2 °F 65% 30.12 in 10.0 mi Calm Calm - N/A   Clear
11:55 PM 42.8 °F - 30.2 °F 61% 30.12 in 10.0 mi Calm Calm - N/A   Clear